Time,TemperatureF,DewpointF,PressureIn,WindDirection,WindDirectionDegrees,WindSpeedMPH,WindSpeedGustMPH,Humidity,HourlyPrecipIn,Conditions,Clouds,dailyrainin,SoftwareType,DateUTC
2013-11-21 00:01:00,39.6,28.4,30.36,NE,48,3.0,11.0,64,0.00,,,0.00,Wunderground v.1.15,2013-11-21 05:01:00,
2013-11-21 00:02:00,39.5,28.3,30.36,ENE,76,3.0,16.0,64,0.00,,,0.00,Wunderground v.1.15,2013-11-21 05:02:00,
2013-11-21 00:03:00,39.5,28.3,30.36,NE,43,3.0,16.0,64,0.00,,,0.00,Wunderground v.1.15,2013-11-21 05:03:00,
2013-11-21 00:06:00,39.5,28.3,30.36,ENE,67,3.0,16.0,64,0.00,,,0.00,Wunderground v.1.15,2013-11-21 05:06:00,
2013-11-21 00:08:00,39.5,28.3,30.36,ESE,118,3.0,16.0,64,0.00,,,0.00,Wunderground v.1.15,2013-11-21 05:08:00,
2013-11-21 00:14:00,39.5,28.3,30.36,SE,135,2.0,2.0,64,0.00,,,0.00,Wunderground v.1.15,2013-11-21 05:14:00,
2013-11-21 00:15:00,39.5,28.3,30.36,ESE,122,2.0,16.0,64,0.00,,,0.00,Wunderground v.1.15,2013-11-21 05:15:00,
2013-11-21 00:20:00,39.5,28.3,30.37,East,88,2.0,16.0,64,0.00,,,0.00,Wunderground v.1.15,2013-11-21 05:20:00,
2013-11-21 00:26:00,39.5,28.3,30.37,NE,44,2.0,16.0,64,0.00,,,0.00,Wunderground v.1.15,2013-11-21 05:26:00,
2013-11-21 00:32:00,39.5,28.3,30.36,NE,48,2.0,16.0,64,0.00,,,0.00,Wunderground v.1.15,2013-11-21 05:32:00,
2013-11-21 00:38:00,39.3,28.5,30.36,NE,53,2.0,11.0,65,0.00,,,0.00,Wunderground v.1.15,2013-11-21 05:38:00,
2013-11-21 00:44:00,39.5,28.3,30.36,NNE,33,3.0,11.0,64,0.00,,,0.00,Wunderground v.1.15,2013-11-21 05:44:00,
2013-11-21 00:49:00,39.5,28.7,30.36,ENE,67,3.0,11.0,65,0.00,,,0.00,Wunderground v.1.15,2013-11-21 05:49:00,
2013-11-21 00:55:00,39.3,28.1,30.36,NE,42,2.0,11.0,64,0.00,,,0.00,Wunderground v.1.15,2013-11-21 05:55:00,
2013-11-21 00:57:00,39.2,28.4,30.36,ENE,63,2.0,11.0,65,0.00,,,0.00,Wunderground v.1.15,2013-11-21 05:57:00,
2013-11-21 01:03:00,39.1,28.3,30.36,NNE,19,2.0,11.0,65,0.00,,,0.00,Wunderground v.1.15,2013-11-21 06:03:00,
2013-11-21 01:08:00,38.9,28.1,30.36,ENE,57,3.0,10.0,65,0.00,,,0.00,Wunderground v.1.15,2013-11-21 06:08:00,
2013-11-21 01:14:00,38.9,28.5,30.36,ENE,75,3.0,3.0,66,0.00,,,0.00,Wunderground v.1.15,2013-11-21 06:14:00,
2013-11-21 01:19:00,38.9,28.1,30.37,NNE,30,3.0,10.0,65,0.00,,,0.00,Wunderground v.1.15,2013-11-21 06:19:00,
2013-11-21 01:25:00,38.8,28.4,30.37,NNE,15,2.0,10.0,66,0.00,,,0.00,Wunderground v.1.15,2013-11-21 06:25:00,
2013-11-21 01:31:00,38.8,28.4,30.37,SE,134,2.0,10.0,66,0.00,,,0.00,Wunderground v.1.15,2013-11-21 06:31:00,
2013-11-21 01:36:00,38.9,28.5,30.37,ENE,62,2.0,12.0,66,0.00,,,0.00,Wunderground v.1.15,2013-11-21 06:36:00,
2013-11-21 01:42:00,39.1,28.7,30.37,NE,51,2.0,12.0,66,0.00,,,0.00,Wunderground v.1.15,2013-11-21 06:42:00,
2013-11-21 01:48:00,38.9,28.5,30.37,NE,55,1.0,12.0,66,0.00,,,0.00,Wunderground v.1.15,2013-11-21 06:48:00,
2013-11-21 01:54:00,38.9,28.5,30.37,ENE,65,2.0,12.0,66,0.00,,,0.00,Wunderground v.1.15,2013-11-21 06:54:00,
2013-11-21 02:00:00,38.9,28.5,30.37,NE,38,2.0,12.0,66,0.00,,,0.00,Wunderground v.1.15,2013-11-21 07:00:00,
2013-11-21 02:06:00,38.9,28.5,30.37,NE,46,3.0,11.0,66,0.00,,,0.00,Wunderground v.1.15,2013-11-21 07:06:00,
2013-11-21 02:12:00,38.8,28.8,30.37,North,5,3.0,11.0,67,0.00,,,0.00,Wunderground v.1.15,2013-11-21 07:12:00,
2013-11-21 02:18:00,38.6,28.6,30.37,NE,49,2.0,11.0,67,0.00,,,0.00,Wunderground v.1.15,2013-11-21 07:18:00,
2013-11-21 02:24:00,38.5,28.5,30.37,NE,47,1.0,11.0,67,0.00,,,0.00,Wunderground v.1.15,2013-11-21 07:24:00,
2013-11-21 02:30:00,38.5,28.5,30.37,NE,53,1.0,11.0,67,0.00,,,0.00,Wunderground v.1.15,2013-11-21 07:30:00,
2013-11-21 02:35:00,38.5,28.5,30.37,NE,53,1.0,7.0,67,0.00,,,0.00,Wunderground v.1.15,2013-11-21 07:35:00,
2013-11-21 02:41:00,38.3,28.7,30.37,NE,51,1.0,7.0,68,0.00,,,0.00,Wunderground v.1.15,2013-11-21 07:41:00,
2013-11-21 02:46:00,38.3,29.0,30.37,NE,51,0.0,7.0,69,0.00,,,0.00,Wunderground v.1.15,2013-11-21 07:46:00,
2013-11-21 02:52:00,38.3,29.0,30.37,ENE,62,0.0,7.0,69,0.00,,,0.00,Wunderground v.1.15,2013-11-21 07:52:00,
2013-11-21 02:57:00,38.5,29.2,30.37,NE,36,1.0,7.0,69,0.00,,,0.00,Wunderground v.1.15,2013-11-21 07:57:00,
2013-11-21 03:03:00,38.5,29.2,30.36,ENE,76,1.0,7.0,69,0.00,,,0.00,Wunderground v.1.15,2013-11-21 08:03:00,
2013-11-21 03:08:00,38.3,29.0,30.36,NE,53,0.0,5.0,69,0.00,,,0.00,Wunderground v.1.15,2013-11-21 08:08:00,
2013-11-21 03:14:00,38.2,28.9,30.36,NE,42,1.0,1.0,69,0.00,,,0.00,Wunderground v.1.15,2013-11-21 08:14:00,
2013-11-21 03:19:00,38.2,28.9,30.37,NE,34,1.0,5.0,69,0.00,,,0.00,Wunderground v.1.15,2013-11-21 08:19:00,
2013-11-21 03:25:00,38.5,29.2,30.37,NE,49,2.0,5.0,69,0.00,,,0.00,Wunderground v.1.15,2013-11-21 08:25:00,
2013-11-21 03:30:00,38.6,29.3,30.37,ENE,78,2.0,5.0,69,0.00,,,0.00,Wunderground v.1.15,2013-11-21 08:30:00,
2013-11-21 03:36:00,38.5,29.6,30.36,ENE,62,1.0,9.0,70,0.00,,,0.00,Wunderground v.1.15,2013-11-21 08:36:00,
2013-11-21 03:41:00,38.3,29.4,30.36,NE,46,1.0,9.0,70,0.00,,,0.00,Wunderground v.1.15,2013-11-21 08:41:00,
2013-11-21 03:47:00,38.3,29.4,30.35,NE,40,1.0,9.0,70,0.00,,,0.00,Wunderground v.1.15,2013-11-21 08:47:00,
2013-11-21 03:52:00,38.3,29.4,30.35,NE,41,1.0,9.0,70,0.00,,,0.00,Wunderground v.1.15,2013-11-21 08:52:00,
2013-11-21 03:57:00,38.3,29.4,30.35,NE,46,1.0,9.0,70,0.00,,,0.00,Wunderground v.1.15,2013-11-21 08:57:00,
2013-11-21 04:03:00,38.3,29.7,30.36,NE,53,1.0,9.0,71,0.00,,,0.00,Wunderground v.1.15,2013-11-21 09:03:00,
2013-11-21 04:08:00,38.5,30.3,30.36,NE,35,1.0,6.0,72,0.00,,,0.00,Wunderground v.1.15,2013-11-21 09:08:00,
2013-11-21 04:14:00,38.6,30.4,30.36,NE,34,1.0,1.0,72,0.00,,,0.00,Wunderground v.1.15,2013-11-21 09:14:00,
2013-11-21 04:19:00,38.6,30.0,30.36,NE,34,0.0,6.0,71,0.00,,,0.00,Wunderground v.1.15,2013-11-21 09:19:00,
2013-11-21 04:24:00,38.6,30.0,30.36,NE,45,0.0,6.0,71,0.00,,,0.00,Wunderground v.1.15,2013-11-21 09:24:00,
2013-11-21 04:30:00,38.6,30.4,30.36,NE,43,0.0,6.0,72,0.00,,,0.00,Wunderground v.1.15,2013-11-21 09:30:00,
2013-11-21 04:36:00,38.5,30.3,30.36,SSW,208,1.0,6.0,72,0.00,,,0.00,Wunderground v.1.15,2013-11-21 09:36:00,
2013-11-21 04:42:00,38.3,30.1,30.36,SSW,193,0.0,6.0,72,0.00,,,0.00,Wunderground v.1.15,2013-11-21 09:42:00,
2013-11-21 04:48:00,38.0,29.8,30.37,NE,55,0.0,6.0,72,0.00,,,0.00,Wunderground v.1.15,2013-11-21 09:48:00,
2013-11-21 04:53:00,37.9,30.0,30.37,NE,55,0.0,6.0,73,0.00,,,0.00,Wunderground v.1.15,2013-11-21 09:53:00,
2013-11-21 04:59:00,38.0,30.4,30.37,ENE,63,0.0,6.0,74,0.00,,,0.00,Wunderground v.1.15,2013-11-21 09:59:00,
2013-11-21 05:04:00,38.3,30.7,30.36,ENE,71,1.0,1.0,74,0.00,,,0.00,Wunderground v.1.15,2013-11-21 10:04:00,
2013-11-21 05:10:00,38.3,30.7,30.36,ENE,58,1.0,4.0,74,0.00,,,0.00,Wunderground v.1.15,2013-11-21 10:10:00,
2013-11-21 05:16:00,38.5,31.3,30.37,NE,46,1.0,4.0,75,0.00,,,0.00,Wunderground v.1.15,2013-11-21 10:16:00,
2013-11-21 05:22:00,38.5,30.9,30.37,NE,46,1.0,4.0,74,0.00,,,0.00,Wunderground v.1.15,2013-11-21 10:22:00,
2013-11-21 05:27:00,38.6,31.7,30.37,NE,42,1.0,4.0,76,0.00,,,0.00,Wunderground v.1.15,2013-11-21 10:27:00,
2013-11-21 05:33:00,39.1,32.2,30.37,ENE,59,1.0,7.0,76,0.00,,,0.00,Wunderground v.1.15,2013-11-21 10:33:00,
2013-11-21 05:39:00,39.3,32.4,30.37,ENE,69,0.0,7.0,76,0.00,,,0.00,Wunderground v.1.15,2013-11-21 10:39:00,
2013-11-21 05:44:00,39.3,32.0,30.37,ENE,69,0.0,7.0,75,0.00,,,0.00,Wunderground v.1.15,2013-11-21 10:44:00,
2013-11-21 05:50:00,39.5,32.2,30.37,NE,56,0.0,7.0,75,0.00,,,0.00,Wunderground v.1.15,2013-11-21 10:50:00,
2013-11-21 05:56:00,39.3,32.4,30.37,NE,55,0.0,7.0,76,0.00,,,0.00,Wunderground v.1.15,2013-11-21 10:56:00,
2013-11-21 06:02:00,39.3,32.4,30.37,NNE,32,1.0,7.0,76,0.00,,,0.00,Wunderground v.1.15,2013-11-21 11:02:00,
2013-11-21 06:07:00,39.3,32.7,30.37,NE,48,1.0,6.0,77,0.00,,,0.00,Wunderground v.1.15,2013-11-21 11:07:00,
2013-11-21 06:13:00,39.5,32.9,30.37,NE,38,1.0,6.0,77,0.00,,,0.00,Wunderground v.1.15,2013-11-21 11:13:00,
2013-11-21 06:19:00,39.6,32.7,30.38,ENE,60,0.0,6.0,76,0.00,,,0.00,Wunderground v.1.15,2013-11-21 11:19:00,
2013-11-21 06:24:00,39.5,32.6,30.38,NNE,30,0.0,6.0,76,0.00,,,0.00,Wunderground v.1.15,2013-11-21 11:24:00,
2013-11-21 06:30:00,39.5,32.6,30.38,NNE,30,1.0,6.0,76,0.00,,,0.00,Wunderground v.1.15,2013-11-21 11:30:00,
2013-11-21 06:35:00,39.6,33.0,30.38,ENE,57,1.0,7.0,77,0.00,,,0.00,Wunderground v.1.15,2013-11-21 11:35:00,
2013-11-21 06:40:00,39.6,33.0,30.38,ENE,63,1.0,7.0,77,0.00,,,0.00,Wunderground v.1.15,2013-11-21 11:40:00,
2013-11-21 06:46:00,39.6,33.0,30.38,ENE,61,1.0,7.0,77,0.00,,,0.00,Wunderground v.1.15,2013-11-21 11:46:00,
2013-11-21 06:51:00,39.6,33.0,30.38,ENE,61,0.0,7.0,77,0.00,,,0.00,Wunderground v.1.15,2013-11-21 11:51:00,
2013-11-21 06:57:00,39.5,32.9,30.38,NE,38,0.0,7.0,77,0.00,,,0.00,Wunderground v.1.15,2013-11-21 11:57:00,
2013-11-21 07:02:00,39.3,33.0,30.38,SSE,153,1.0,7.0,78,0.00,,,0.00,Wunderground v.1.15,2013-11-21 12:02:00,
2013-11-21 07:08:00,39.3,33.0,30.38,SE,139,1.0,5.0,78,0.00,,,0.00,Wunderground v.1.15,2013-11-21 12:08:00,
2013-11-21 07:13:00,39.3,33.0,30.38,SE,139,0.0,5.0,78,0.00,,,0.00,Wunderground v.1.15,2013-11-21 12:13:00,
2013-11-21 07:19:00,39.3,33.0,30.38,NE,42,1.0,6.0,78,0.00,,,0.00,Wunderground v.1.15,2013-11-21 12:19:00,
2013-11-21 07:25:00,39.5,33.2,30.38,ENE,73,1.0,5.0,78,0.00,,,0.00,Wunderground v.1.15,2013-11-21 12:25:00,
2013-11-21 07:30:00,39.5,33.5,30.38,North,5,1.0,5.0,79,0.00,,,0.00,Wunderground v.1.15,2013-11-21 12:30:00,
2013-11-21 07:36:00,39.5,33.5,30.39,ENE,63,0.0,9.0,79,0.00,,,0.00,Wunderground v.1.15,2013-11-21 12:36:00,
2013-11-21 07:41:00,39.8,33.8,30.39,North,11,1.0,9.0,79,0.00,,,0.00,Wunderground v.1.15,2013-11-21 12:41:00,
2013-11-21 07:47:00,39.9,33.9,30.39,NE,50,1.0,9.0,79,0.00,,,0.00,Wunderground v.1.15,2013-11-21 12:47:00,
2013-11-21 07:53:00,40.2,34.5,30.39,SSW,205,1.0,9.0,80,0.00,,,0.00,Wunderground v.1.15,2013-11-21 12:53:00,
2013-11-21 07:58:00,40.3,34.9,30.39,NE,49,1.0,9.0,81,0.00,,,0.00,Wunderground v.1.15,2013-11-21 12:58:00,
2013-11-21 08:04:00,40.6,35.2,30.38,ENE,59,1.0,1.0,81,0.00,,,0.00,Wunderground v.1.15,2013-11-21 13:04:00,
2013-11-21 08:10:00,40.8,35.4,30.38,ENE,69,1.0,7.0,81,0.00,,,0.00,Wunderground v.1.15,2013-11-21 13:10:00,
2013-11-21 08:15:00,41.1,35.7,30.38,SE,142,2.0,7.0,81,0.00,,,0.00,Wunderground v.1.15,2013-11-21 13:15:00,
2013-11-21 08:21:00,41.3,35.9,30.39,ENE,59,2.0,7.0,81,0.00,,,0.00,Wunderground v.1.15,2013-11-21 13:21:00,
2013-11-21 08:27:00,41.6,35.9,30.39,NE,55,2.0,7.0,80,0.00,,,0.00,Wunderground v.1.15,2013-11-21 13:27:00,
2013-11-21 08:32:00,41.9,36.2,30.39,SE,135,1.0,10.0,80,0.00,,,0.00,Wunderground v.1.15,2013-11-21 13:32:00,
2013-11-21 08:38:00,42.3,36.6,30.39,NE,35,1.0,10.0,80,0.00,,,0.00,Wunderground v.1.15,2013-11-21 13:38:00,
2013-11-21 08:43:00,42.5,36.8,30.39,SE,130,2.0,10.0,80,0.00,,,0.00,Wunderground v.1.15,2013-11-21 13:43:00,
2013-11-21 08:49:00,42.6,37.2,30.40,NE,35,2.0,10.0,81,0.00,,,0.00,Wunderground v.1.15,2013-11-21 13:49:00,
2013-11-21 08:54:00,43.1,37.7,30.40,ENE,60,1.0,10.0,81,0.00,,,0.00,Wunderground v.1.15,2013-11-21 13:54:00,
2013-11-21 09:00:00,43.5,38.1,30.40,NE,46,1.0,10.0,81,0.00,,,0.00,Wunderground v.1.15,2013-11-21 14:00:00,
2013-11-21 09:05:00,43.8,38.3,30.40,NE,47,1.0,3.0,81,0.00,,,0.00,Wunderground v.1.15,2013-11-21 14:05:00,
2013-11-21 09:11:00,43.9,38.4,30.40,ESE,113,1.0,8.0,81,0.00,,,0.00,Wunderground v.1.15,2013-11-21 14:11:00,
2013-11-21 09:17:00,44.1,38.6,30.40,ENE,57,2.0,8.0,81,0.00,,,0.00,Wunderground v.1.15,2013-11-21 14:17:00,
2013-11-21 09:23:00,43.8,38.3,30.40,East,93,2.0,8.0,81,0.00,,,0.00,Wunderground v.1.15,2013-11-21 14:23:00,
2013-11-21 09:28:00,43.9,38.8,30.40,NE,53,1.0,8.0,82,0.00,,,0.00,Wunderground v.1.15,2013-11-21 14:28:00,
2013-11-21 09:33:00,44.5,38.7,30.40,North,351,2.0,8.0,80,0.00,,,0.00,Wunderground v.1.15,2013-11-21 14:33:00,
2013-11-21 09:39:00,44.6,38.5,30.40,ENE,57,2.0,8.0,79,0.00,,,0.00,Wunderground v.1.15,2013-11-21 14:39:00,
2013-11-21 09:45:00,44.6,38.8,30.40,ENE,72,3.0,8.0,80,0.00,,,0.00,Wunderground v.1.15,2013-11-21 14:45:00,
2013-11-21 09:51:00,45.2,38.7,30.40,NNE,32,1.0,8.0,78,0.00,,,0.00,Wunderground v.1.15,2013-11-21 14:51:00,
2013-11-21 09:57:00,45.2,38.7,30.40,NE,53,1.0,8.0,78,0.00,,,0.00,Wunderground v.1.15,2013-11-21 14:57:00,
2013-11-21 10:03:00,45.5,39.4,30.40,ENE,68,1.0,10.0,79,0.00,,,0.00,Wunderground v.1.15,2013-11-21 15:03:00,
2013-11-21 10:09:00,46.2,39.7,30.40,NE,51,2.0,10.0,78,0.00,,,0.00,Wunderground v.1.15,2013-11-21 15:09:00,
2013-11-21 10:15:00,47.1,39.2,30.40,ENE,57,2.0,10.0,74,0.00,,,0.00,Wunderground v.1.15,2013-11-21 15:15:00,
2013-11-21 10:20:00,47.7,40.2,30.40,North,5,2.0,10.0,75,0.00,,,0.00,Wunderground v.1.15,2013-11-21 15:20:00,
2013-11-21 10:25:00,47.6,39.4,30.40,NE,46,3.0,4.0,73,0.00,,,0.00,Wunderground v.1.15,2013-11-21 15:25:00,
2013-11-21 10:31:00,47.3,39.8,30.39,NE,36,3.0,10.0,75,0.00,,,0.00,Wunderground v.1.15,2013-11-21 15:31:00,
2013-11-21 10:37:00,47.7,39.5,30.39,ENE,60,2.0,10.0,73,0.00,,,0.00,Wunderground v.1.15,2013-11-21 15:37:00,
2013-11-21 10:43:00,47.3,39.8,30.39,ENE,64,3.0,10.0,75,0.00,,,0.00,Wunderground v.1.15,2013-11-21 15:43:00,
2013-11-21 10:48:00,47.7,39.8,30.39,NW,326,3.0,10.0,74,0.00,,,0.00,Wunderground v.1.15,2013-11-21 15:48:00,
2013-11-21 10:54:00,48.2,39.9,30.39,SE,127,1.0,1.0,73,0.00,,,0.00,Wunderground v.1.15,2013-11-21 15:54:00,
2013-11-21 11:00:00,48.0,40.1,30.39,ENE,72,2.0,10.0,74,0.00,,,0.00,Wunderground v.1.15,2013-11-21 16:00:00,
2013-11-21 11:06:00,48.0,40.1,30.39,SSE,158,2.0,11.0,74,0.00,,,0.00,Wunderground v.1.15,2013-11-21 16:06:00,
2013-11-21 11:12:00,48.5,40.9,30.39,ENE,71,2.0,11.0,75,0.00,,,0.00,Wunderground v.1.15,2013-11-21 16:12:00,
2013-11-21 11:18:00,48.8,40.9,30.38,East,95,1.0,11.0,74,0.00,,,0.00,Wunderground v.1.15,2013-11-21 16:18:00,
2013-11-21 11:24:00,48.8,40.9,30.38,ENE,69,2.0,2.0,74,0.00,,,0.00,Wunderground v.1.15,2013-11-21 16:24:00,
2013-11-21 11:30:00,48.6,40.7,30.38,ENE,63,2.0,11.0,74,0.00,,,0.00,Wunderground v.1.15,2013-11-21 16:30:00,
2013-11-21 11:35:00,48.6,41.0,30.38,East,82,2.0,10.0,75,0.00,,,0.00,Wunderground v.1.15,2013-11-21 16:35:00,
2013-11-21 11:41:00,49.1,41.5,30.38,NE,47,1.0,10.0,75,0.00,,,0.00,Wunderground v.1.15,2013-11-21 16:41:00,
2013-11-21 11:47:00,49.6,41.7,30.37,East,90,1.0,10.0,74,0.00,,,0.00,Wunderground v.1.15,2013-11-21 16:47:00,
2013-11-21 11:53:00,50.1,41.8,30.37,ENE,65,1.0,10.0,73,0.00,,,0.00,Wunderground v.1.15,2013-11-21 16:53:00,
2013-11-21 11:59:00,50.2,41.9,30.37,ENE,73,1.0,10.0,73,0.00,,,0.00,Wunderground v.1.15,2013-11-21 16:59:00,
2013-11-21 12:04:00,50.1,42.1,30.37,ENE,66,1.0,9.0,74,0.00,,,0.00,Wunderground v.1.15,2013-11-21 17:04:00,
2013-11-21 12:10:00,50.1,42.1,30.37,East,84,1.0,9.0,74,0.00,,,0.00,Wunderground v.1.15,2013-11-21 17:10:00,
2013-11-21 12:15:00,49.9,42.3,30.37,ENE,63,1.0,9.0,75,0.00,,,0.00,Wunderground v.1.15,2013-11-21 17:15:00,
2013-11-21 12:21:00,49.8,42.5,30.37,SSE,151,1.0,9.0,76,0.00,,,0.00,Wunderground v.1.15,2013-11-21 17:21:00,
2013-11-21 12:27:00,49.9,42.6,30.37,ENE,72,1.0,9.0,76,0.00,,,0.00,Wunderground v.1.15,2013-11-21 17:27:00,
2013-11-21 12:33:00,50.2,42.9,30.35,ESE,115,1.0,9.0,76,0.00,,,0.00,Wunderground v.1.15,2013-11-21 17:33:00,
2013-11-21 12:39:00,50.7,43.8,30.35,NE,47,2.0,9.0,77,0.00,,,0.00,Wunderground v.1.15,2013-11-21 17:39:00,
2013-11-21 12:45:00,50.7,43.8,30.35,ENE,65,2.0,9.0,77,0.00,,,0.00,Wunderground v.1.15,2013-11-21 17:45:00,
2013-11-21 12:51:00,50.4,44.5,30.35,NE,48,2.0,9.0,80,0.00,,,0.00,Wunderground v.1.15,2013-11-21 17:51:00,
2013-11-21 12:56:00,50.1,45.1,30.35,NE,48,2.0,9.0,83,0.00,,,0.00,Wunderground v.1.15,2013-11-21 17:56:00,
2013-11-21 13:02:00,49.9,44.9,30.35,ENE,66,1.0,9.0,83,0.00,,,0.00,Wunderground v.1.15,2013-11-21 18:02:00,
2013-11-21 13:07:00,50.1,45.1,30.35,SE,132,0.0,10.0,83,0.00,,,0.00,Wunderground v.1.15,2013-11-21 18:07:00,
2013-11-21 13:13:00,50.4,45.4,30.35,ESE,110,1.0,10.0,83,0.00,,,0.00,Wunderground v.1.15,2013-11-21 18:13:00,
2013-11-21 13:18:00,50.8,45.5,30.34,NE,46,1.0,10.0,82,0.00,,,0.00,Wunderground v.1.15,2013-11-21 18:18:00,
2013-11-21 13:23:00,51.0,45.4,30.34,ENE,76,1.0,10.0,81,0.00,,,0.00,Wunderground v.1.15,2013-11-21 18:23:00,
2013-11-21 13:29:00,51.1,45.8,30.34,SE,129,2.0,10.0,82,0.00,,,0.00,Wunderground v.1.15,2013-11-21 18:29:00,
2013-11-21 13:35:00,51.3,45.7,30.33,ENE,65,2.0,9.0,81,0.00,,,0.00,Wunderground v.1.15,2013-11-21 18:35:00,
2013-11-21 13:41:00,51.1,45.8,30.33,ENE,71,1.0,9.0,82,0.00,,,0.00,Wunderground v.1.15,2013-11-21 18:41:00,
2013-11-21 13:46:00,51.0,46.0,30.33,SSE,155,1.0,9.0,83,0.00,,,0.00,Wunderground v.1.15,2013-11-21 18:46:00,
2013-11-21 13:52:00,51.1,46.1,30.33,ENE,76,1.0,9.0,83,0.00,,,0.00,Wunderground v.1.15,2013-11-21 18:52:00,
2013-11-21 13:58:00,51.0,46.3,30.33,ESE,120,1.0,9.0,84,0.00,,,0.00,Wunderground v.1.15,2013-11-21 18:58:00,
2013-11-21 14:04:00,50.8,46.8,30.32,East,85,1.0,8.0,86,0.00,,,0.00,Wunderground v.1.15,2013-11-21 19:04:00,
2013-11-21 14:09:00,50.7,46.7,30.32,East,91,1.0,8.0,86,0.00,,,0.00,Wunderground v.1.15,2013-11-21 19:09:00,
2013-11-21 14:14:00,50.7,46.7,30.32,East,82,1.0,1.0,86,0.00,,,0.00,Wunderground v.1.15,2013-11-21 19:14:00,
2013-11-21 14:20:00,50.5,46.8,30.32,NE,55,2.0,8.0,87,0.00,,,0.00,Wunderground v.1.15,2013-11-21 19:20:00,
2013-11-21 14:25:00,50.4,47.0,30.32,SE,137,2.0,8.0,88,0.00,,,0.00,Wunderground v.1.15,2013-11-21 19:25:00,
2013-11-21 14:31:00,50.4,47.3,30.31,ENE,59,1.0,8.0,89,0.00,,,0.00,Wunderground v.1.15,2013-11-21 19:31:00,
2013-11-21 14:37:00,50.5,47.1,30.31,NE,52,1.0,9.0,88,0.00,,,0.00,Wunderground v.1.15,2013-11-21 19:37:00,
2013-11-21 14:43:00,50.7,47.3,30.31,NE,44,1.0,9.0,88,0.00,,,0.00,Wunderground v.1.15,2013-11-21 19:43:00,
2013-11-21 14:48:00,50.5,47.1,30.31,NE,46,1.0,9.0,88,0.00,,,0.00,Wunderground v.1.15,2013-11-21 19:48:00,
2013-11-21 14:54:00,50.5,47.1,30.31,NE,49,2.0,9.0,88,0.00,,,0.00,Wunderground v.1.15,2013-11-21 19:54:00,
2013-11-21 14:59:00,50.7,47.3,30.31,NE,48,2.0,9.0,88,0.00,,,0.00,Wunderground v.1.15,2013-11-21 19:59:00,
2013-11-21 15:05:00,50.8,47.1,30.30,NNE,12,1.0,8.0,87,0.00,,,0.00,Wunderground v.1.15,2013-11-21 20:05:00,
2013-11-21 15:11:00,50.7,47.0,30.30,SE,133,2.0,8.0,87,0.00,,,0.00,Wunderground v.1.15,2013-11-21 20:11:00,
2013-11-21 15:16:00,50.5,47.1,30.31,NE,55,2.0,8.0,88,0.00,,,0.00,Wunderground v.1.15,2013-11-21 20:16:00,
2013-11-21 15:22:00,50.7,47.0,30.31,NE,55,1.0,8.0,87,0.00,,,0.00,Wunderground v.1.15,2013-11-21 20:22:00,
2013-11-21 15:27:00,50.7,47.0,30.31,SE,135,0.0,8.0,87,0.00,,,0.00,Wunderground v.1.15,2013-11-21 20:27:00,
2013-11-21 15:33:00,50.5,46.8,30.31,ENE,59,1.0,8.0,87,0.00,,,0.00,Wunderground v.1.15,2013-11-21 20:33:00,
2013-11-21 15:38:00,50.4,46.7,30.31,ENE,67,1.0,8.0,87,0.00,,,0.00,Wunderground v.1.15,2013-11-21 20:38:00,
2013-11-21 15:44:00,50.2,46.8,30.31,NE,56,1.0,8.0,88,0.00,,,0.00,Wunderground v.1.15,2013-11-21 20:44:00,
2013-11-21 15:49:00,50.2,46.8,30.31,ENE,71,1.0,8.0,88,0.00,,,0.00,Wunderground v.1.15,2013-11-21 20:49:00,
2013-11-21 15:55:00,49.9,46.8,30.31,NE,53,2.0,8.0,89,0.00,,,0.00,Wunderground v.1.15,2013-11-21 20:55:00,
2013-11-21 16:01:00,49.9,46.8,30.31,ENE,64,2.0,8.0,89,0.00,,,0.00,Wunderground v.1.15,2013-11-21 21:01:00,
2013-11-21 16:07:00,49.9,46.8,30.31,ENE,59,1.0,7.0,89,0.00,,,0.00,Wunderground v.1.15,2013-11-21 21:07:00,
2013-11-21 16:12:00,50.1,47.3,30.31,NE,53,1.0,7.0,90,0.00,,,0.00,Wunderground v.1.15,2013-11-21 21:12:00,
2013-11-21 16:18:00,50.2,47.4,30.31,NE,53,1.0,7.0,90,0.00,,,0.00,Wunderground v.1.15,2013-11-21 21:18:00,
2013-11-21 16:23:00,50.2,47.1,30.31,NE,53,0.0,7.0,89,0.00,,,0.00,Wunderground v.1.15,2013-11-21 21:23:00,
2013-11-21 16:29:00,50.1,47.0,30.31,ENE,63,0.0,7.0,89,0.00,,,0.00,Wunderground v.1.15,2013-11-21 21:29:00,
2013-11-21 16:34:00,50.1,47.0,30.31,East,80,1.0,1.0,89,0.00,,,0.00,Wunderground v.1.15,2013-11-21 21:34:00,
2013-11-21 16:40:00,49.9,46.8,30.31,ENE,67,1.0,5.0,89,0.00,,,0.00,Wunderground v.1.15,2013-11-21 21:40:00,
2013-11-21 16:46:00,49.9,46.8,30.31,ENE,75,0.0,5.0,89,0.00,,,0.00,Wunderground v.1.15,2013-11-21 21:46:00,
2013-11-21 16:52:00,49.8,47.0,30.31,North,9,0.0,5.0,90,0.00,,,0.00,Wunderground v.1.15,2013-11-21 21:52:00,
2013-11-21 16:57:00,49.6,46.8,30.31,NE,53,0.0,5.0,90,0.00,,,0.00,Wunderground v.1.15,2013-11-21 21:57:00,
2013-11-21 17:03:00,49.5,46.7,30.31,NE,53,0.0,7.0,90,0.00,,,0.00,Wunderground v.1.15,2013-11-21 22:03:00,
2013-11-21 17:08:00,49.4,46.9,30.31,ENE,61,1.0,7.0,91,0.00,,,0.00,Wunderground v.1.15,2013-11-21 22:08:00,
2013-11-21 17:14:00,49.1,46.6,30.31,ENE,59,1.0,1.0,91,0.00,,,0.00,Wunderground v.1.15,2013-11-21 22:14:00,
2013-11-21 17:20:00,48.9,46.7,30.31,NE,49,1.0,7.0,92,0.00,,,0.00,Wunderground v.1.15,2013-11-21 22:20:00,
2013-11-21 17:26:00,48.9,46.7,30.31,NE,49,1.0,7.0,92,0.00,,,0.00,Wunderground v.1.15,2013-11-21 22:26:00,
2013-11-21 17:31:00,48.9,47.0,30.31,NE,36,1.0,7.0,93,0.00,,,0.00,Wunderground v.1.15,2013-11-21 22:31:00,
2013-11-21 17:36:00,48.9,46.7,30.31,NE,36,0.0,6.0,92,0.00,,,0.00,Wunderground v.1.15,2013-11-21 22:36:00,
2013-11-21 17:42:00,48.8,46.6,30.31,NE,36,0.0,6.0,92,0.00,,,0.00,Wunderground v.1.15,2013-11-21 22:42:00,
2013-11-21 17:48:00,48.8,46.6,30.31,NE,54,0.0,6.0,92,0.00,,,0.00,Wunderground v.1.15,2013-11-21 22:48:00,
2013-11-21 17:53:00,48.6,46.7,30.31,NE,54,0.0,6.0,93,0.00,,,0.00,Wunderground v.1.15,2013-11-21 22:53:00,
2013-11-21 17:59:00,48.5,46.6,30.31,SSE,167,0.0,6.0,93,0.00,,,0.00,Wunderground v.1.15,2013-11-21 22:59:00,
2013-11-21 18:05:00,48.5,46.6,30.31,ENE,60,0.0,5.0,93,0.00,,,0.00,Wunderground v.1.15,2013-11-21 23:05:00,
2013-11-21 18:10:00,48.3,46.7,30.31,East,90,0.0,5.0,94,0.00,,,0.00,Wunderground v.1.15,2013-11-21 23:10:00,
2013-11-21 18:16:00,48.3,46.7,30.32,East,90,0.0,5.0,94,0.00,,,0.00,Wunderground v.1.15,2013-11-21 23:16:00,
2013-11-21 18:21:00,48.3,46.9,30.32,ESE,121,0.0,5.0,95,0.00,,,0.00,Wunderground v.1.15,2013-11-21 23:21:00,
2013-11-21 18:27:00,48.3,46.9,30.32,ESE,121,0.0,5.0,95,0.00,,,0.00,Wunderground v.1.15,2013-11-21 23:27:00,
2013-11-21 18:32:00,48.3,46.9,30.33,NE,42,0.0,5.0,95,0.00,,,0.00,Wunderground v.1.15,2013-11-21 23:32:00,
2013-11-21 18:38:00,48.3,46.9,30.33,NE,42,0.0,4.0,95,0.00,,,0.00,Wunderground v.1.15,2013-11-21 23:38:00,
2013-11-21 18:43:00,48.3,46.9,30.33,NE,42,0.0,4.0,95,0.00,,,0.00,Wunderground v.1.15,2013-11-21 23:43:00,
2013-11-21 18:49:00,48.3,46.9,30.33,NE,42,0.0,4.0,95,0.00,,,0.00,Wunderground v.1.15,2013-11-21 23:49:00,
2013-11-21 18:54:00,48.2,46.8,30.33,NE,42,0.0,4.0,95,0.00,,,0.00,Wunderground v.1.15,2013-11-21 23:54:00,
2013-11-21 19:00:00,48.0,46.6,30.33,NE,42,0.0,4.0,95,0.00,,,0.00,Wunderground v.1.15,2013-11-22 00:00:00,
2013-11-21 19:06:00,47.9,46.8,30.33,NE,42,0.0,3.0,96,0.00,,,0.00,Wunderground v.1.15,2013-11-22 00:06:00,
2013-11-21 19:12:00,47.9,46.8,30.33,NE,42,0.0,3.0,96,0.00,,,0.00,Wunderground v.1.15,2013-11-22 00:12:00,
2013-11-21 19:18:00,47.9,46.8,30.33,NE,42,0.0,3.0,96,0.00,,,0.00,Wunderground v.1.15,2013-11-22 00:18:00,
2013-11-21 19:24:00,47.9,46.8,30.33,NE,42,0.0,3.0,96,0.00,,,0.00,Wunderground v.1.15,2013-11-22 00:24:00,
2013-11-21 19:29:00,47.7,46.6,30.33,NE,42,0.0,3.0,96,0.00,,,0.00,Wunderground v.1.15,2013-11-22 00:29:00,
2013-11-21 19:35:00,47.9,46.8,30.33,ESE,117,0.0,3.0,96,0.00,,,0.00,Wunderground v.1.15,2013-11-22 00:35:00,
2013-11-21 19:40:00,48.0,46.9,30.33,ESE,117,0.0,3.0,96,0.00,,,0.00,Wunderground v.1.15,2013-11-22 00:40:00,
2013-11-21 19:46:00,48.0,46.9,30.33,ESE,117,0.0,3.0,96,0.00,,,0.00,Wunderground v.1.15,2013-11-22 00:46:00,
2013-11-21 19:51:00,48.0,46.9,30.33,ESE,117,0.0,3.0,96,0.00,,,0.00,Wunderground v.1.15,2013-11-22 00:51:00,
2013-11-21 19:56:00,48.0,46.9,30.33,SE,129,0.0,3.0,96,0.00,,,0.00,Wunderground v.1.15,2013-11-22 00:56:00,
2013-11-21 20:02:00,48.0,46.9,30.33,SE,129,0.0,4.0,96,0.00,,,0.00,Wunderground v.1.15,2013-11-22 01:02:00,
2013-11-21 20:08:00,47.9,46.8,30.33,East,87,0.0,4.0,96,0.00,,,0.00,Wunderground v.1.15,2013-11-22 01:08:00,
2013-11-21 20:14:00,47.9,46.8,30.33,East,86,0.0,4.0,96,0.00,,,0.00,Wunderground v.1.15,2013-11-22 01:14:00,
2013-11-21 20:20:00,47.9,46.8,30.32,East,87,0.0,4.0,96,0.00,,,0.00,Wunderground v.1.15,2013-11-22 01:20:00,
2013-11-21 20:26:00,47.7,46.6,30.32,East,84,0.0,4.0,96,0.00,,,0.00,Wunderground v.1.15,2013-11-22 01:26:00,
2013-11-21 20:32:00,47.6,46.5,30.32,ENE,65,0.0,4.0,96,0.00,,,0.00,Wunderground v.1.15,2013-11-22 01:32:00,
2013-11-21 20:37:00,47.7,46.6,30.32,East,88,0.0,3.0,96,0.00,,,0.00,Wunderground v.1.15,2013-11-22 01:37:00,
2013-11-21 20:43:00,47.7,46.6,30.32,SE,132,0.0,3.0,96,0.00,,,0.00,Wunderground v.1.15,2013-11-22 01:43:00,
2013-11-21 20:49:00,47.7,46.6,30.32,SE,132,0.0,3.0,96,0.00,,,0.00,Wunderground v.1.15,2013-11-22 01:49:00,
2013-11-21 20:54:00,47.6,46.5,30.32,SE,132,0.0,3.0,96,0.00,,,0.00,Wunderground v.1.15,2013-11-22 01:54:00,
2013-11-21 21:00:00,47.4,46.3,30.32,SE,132,0.0,3.0,96,0.00,,,0.00,Wunderground v.1.15,2013-11-22 02:00:00,
2013-11-21 21:05:00,47.3,46.5,30.33,East,84,0.0,4.0,97,0.00,,,0.00,Wunderground v.1.15,2013-11-22 02:05:00,
2013-11-21 21:09:00,47.3,46.5,30.33,East,84,0.0,4.0,97,0.00,,,0.00,Wunderground v.1.15,2013-11-22 02:09:00,
2013-11-21 21:11:00,47.3,46.5,30.33,East,84,0.0,4.0,97,0.00,,,0.00,Wunderground v.1.15,2013-11-22 02:11:00,
2013-11-21 21:12:00,47.3,46.5,30.33,East,84,0.0,4.0,97,0.00,,,0.00,Wunderground v.1.15,2013-11-22 02:12:00,
2013-11-21 21:13:00,47.3,46.5,30.33,East,85,0.0,4.0,97,0.00,,,0.00,Wunderground v.1.15,2013-11-22 02:13:00,
2013-11-21 21:17:00,47.1,46.3,30.33,East,85,0.0,4.0,97,0.00,,,0.00,Wunderground v.1.15,2013-11-22 02:17:00,
2013-11-21 21:21:00,47.0,45.9,30.33,East,85,0.0,4.0,96,0.00,,,0.00,Wunderground v.1.15,2013-11-22 02:21:00,
2013-11-21 21:27:00,47.1,46.3,30.33,ENE,76,0.0,4.0,97,0.00,,,0.00,Wunderground v.1.15,2013-11-22 02:27:00,
2013-11-21 21:33:00,47.0,46.2,30.34,ENE,76,0.0,4.0,97,0.00,,,0.00,Wunderground v.1.15,2013-11-22 02:33:00,
2013-11-21 21:38:00,47.0,46.2,30.34,ENE,76,0.0,3.0,97,0.00,,,0.00,Wunderground v.1.15,2013-11-22 02:38:00,
2013-11-21 21:44:00,47.0,46.2,30.34,ENE,65,1.0,1.0,97,0.00,,,0.00,Wunderground v.1.15,2013-11-22 02:44:00,
2013-11-21 21:49:00,46.8,46.0,30.34,ENE,64,1.0,3.0,97,0.00,,,0.00,Wunderground v.1.15,2013-11-22 02:49:00,
2013-11-21 21:55:00,46.8,46.0,30.34,ENE,64,0.0,3.0,97,0.00,,,0.00,Wunderground v.1.15,2013-11-22 02:55:00,
2013-11-21 22:00:00,46.8,46.0,30.34,ENE,64,0.0,3.0,97,0.00,,,0.00,Wunderground v.1.15,2013-11-22 03:00:00,
2013-11-21 22:05:00,46.8,46.0,30.34,NE,40,0.0,3.0,97,0.00,,,0.00,Wunderground v.1.15,2013-11-22 03:05:00,
2013-11-21 22:11:00,46.7,45.9,30.34,NE,40,1.0,3.0,97,0.00,,,0.00,Wunderground v.1.15,2013-11-22 03:11:00,
2013-11-21 22:16:00,47.0,46.5,30.34,ENE,69,1.0,3.0,98,0.00,,,0.00,Wunderground v.1.15,2013-11-22 03:16:00,
2013-11-21 22:22:00,47.0,46.5,30.34,NNE,32,1.0,3.0,98,0.00,,,0.00,Wunderground v.1.15,2013-11-22 03:22:00,
2013-11-21 22:28:00,46.7,45.9,30.34,NNE,32,0.0,3.0,97,0.00,,,0.00,Wunderground v.1.15,2013-11-22 03:28:00,
2013-11-21 22:33:00,46.5,45.7,30.34,NNE,32,0.0,5.0,97,0.00,,,0.00,Wunderground v.1.15,2013-11-22 03:33:00,
2013-11-21 22:39:00,46.8,46.3,30.34,NNE,32,0.0,5.0,98,0.00,,,0.00,Wunderground v.1.15,2013-11-22 03:39:00,
2013-11-21 22:45:00,46.8,46.3,30.34,NE,39,0.0,5.0,98,0.00,,,0.00,Wunderground v.1.15,2013-11-22 03:45:00,
2013-11-21 22:50:00,47.0,46.5,30.33,NE,42,1.0,5.0,98,0.00,,,0.00,Wunderground v.1.15,2013-11-22 03:50:00,
2013-11-21 22:56:00,47.0,46.5,30.33,NE,42,1.0,5.0,98,0.00,,,0.00,Wunderground v.1.15,2013-11-22 03:56:00,
2013-11-21 23:02:00,47.1,46.6,30.33,NE,42,1.0,5.0,98,0.00,,,0.00,Wunderground v.1.15,2013-11-22 04:02:00,
2013-11-21 23:08:00,47.1,46.6,30.33,NE,36,1.0,4.0,98,0.00,,,0.00,Wunderground v.1.15,2013-11-22 04:08:00,
2013-11-21 23:13:00,47.1,46.6,30.33,NE,38,0.0,4.0,98,0.00,,,0.00,Wunderground v.1.15,2013-11-22 04:13:00,
2013-11-21 23:19:00,47.1,46.6,30.32,NE,51,1.0,4.0,98,0.00,,,0.00,Wunderground v.1.15,2013-11-22 04:19:00,
2013-11-21 23:24:00,47.3,46.8,30.32,NNE,28,1.0,1.0,98,0.00,,,0.00,Wunderground v.1.15,2013-11-22 04:24:00,
2013-11-21 23:30:00,47.0,46.5,30.32,NNE,17,1.0,6.0,98,0.00,,,0.00,Wunderground v.1.15,2013-11-22 04:30:00,
2013-11-21 23:36:00,47.0,46.5,30.32,NE,49,1.0,6.0,98,0.00,,,0.00,Wunderground v.1.15,2013-11-22 04:36:00,
2013-11-21 23:41:00,46.8,46.3,30.32,ENE,57,0.0,6.0,98,0.00,,,0.00,Wunderground v.1.15,2013-11-22 04:41:00,
2013-11-21 23:47:00,47.1,46.6,30.32,NE,52,0.0,6.0,98,0.00,,,0.00,Wunderground v.1.15,2013-11-22 04:47:00,
2013-11-21 23:53:00,47.3,46.8,30.32,NE,47,0.0,6.0,98,0.00,,,0.00,Wunderground v.1.15,2013-11-22 04:53:00,
2013-11-21 23:58:00,47.1,46.6,30.32,NE,52,0.0,6.0,98,0.00,,,0.00,Wunderground v.1.15,2013-11-22 04:58:00,